Regional Weather Roundup
Issued by NWS

Home | Current Version | Previous Version | Text Only | Print | Product List | Glossary On
Versions: 1 2 3 4 5 6 7 8 9 10 11 12 13 14 15 16 17 18 19 20 21 22 23 24 25 26 27 28 29 30 31 32 33 34 35 36 37 38 39 40 41 42 43 44 45 46 47 48 49 50
000
ASUS43 KLSX 211907
RWRMO

WEATHER SUMMARY FOR MISSOURI
NATIONAL WEATHER SERVICE SPRINGFIELD MO
200 PM CDT THU AUG 21 2014

NOTE: "FAIR" INDICATES FEW OR NO CLOUDS BELOW 12,000 FEET WITH NO
       SIGNIFICANT WEATHER AND/OR OBSTRUCTIONS TO VISIBILITY.
       CURRENT SKY AND/OR WEATHER CONDITIONS ARE NOT AVAILABLE FOR
       CHILLICOTHE AND FARMINGTON.

MOZ001>031-035>038-043-044-053-054-212000-
...NORTHERN AND WESTERN MISSOURI...

CITY           SKY/WX    TMP DP  RH WIND       PRES   REMARKS
KANSAS CTY INT PTSUNNY   89  74  60 S13       29.90F HX  98
KANSAS C DTWN  PTSUNNY   93  72  50 S16G22    29.89F HX 101
LEE`S SUMMIT   MOSUNNY   91  73  55 S12G23    29.92F HX  99
ST JOSEPH      PTSUNNY   89  76  65 S10       29.87F HX 100
CHILLICOTHE      N/A     89  77  67 S8        29.90F HX 101
KIRKSVILLE     MOSUNNY   89  74  60 SW15      29.94R HX  98

$$
MOZ066>068-077>081-088>096-101>105-212000-
...SOUTHWEST MISSOURI...

CITY           SKY/WX    TMP DP  RH WIND       PRES   REMARKS
SPRINGFIELD    SUNNY     96  67  38 SW15      30.01F HX 100
JOPLIN         SUNNY     96  71  44 S18       29.99S HX 103

$$
MOZ032>034-039>042-045>050-055>058-069>072-212000-
...CENTRAL MISSOURI...

CITY           SKY/WX    TMP DP  RH WIND       PRES   REMARKS
COLUMBIA       SUNNY     92  73  53 SW16      29.96F HX 100
JEFFERSON CITY SUNNY     92  72  51 S10       29.95F HX  99
ROLLA          MOSUNNY   92  72  51 SW10      30.00F HX  99
SEDALIA        MOSUNNY   92  74  55 S14G22    29.95F HX 101
WHITEMAN AFB   MOSUNNY   91  48  22 SW14G23   29.93F
OSAGE BEACH    MOSUNNY   95  70  43 SW14      29.97F HX 101

$$
MOZ051-052-059>065-212000-
...EAST CENTRAL MISSOURI...

CITY           SKY/WX    TMP DP  RH WIND       PRES   REMARKS
ST LOUIS INTL  NOT AVBL
SPIRIT OF STL  PTSUNNY   92  74  55 SW7G17    29.96F HX 101
ST CHARLES     MOSUNNY   91  74  57 SW10      29.96F HX 100

$$
MOZ072>076-082>087-097>100-106>115-212000-
...SOUTH CENTRAL AND SOUTHEAST MISSOURI...

CITY           SKY/WX    TMP DP  RH WIND       PRES   REMARKS
CAPE GIRARDEAU MOSUNNY   89  74  60 S10       30.03F HX  98
FARMINGTON     MOSUNNY   93  70  46 SW9       30.04S HX  99
POPLAR BLUFF   SUNNY     91  72  53 S12       30.02F HX  98
WEST PLAINS    MOSUNNY   91  70  49 VRB6      30.06F HX  96

$$


USA.gov is the U.S. government's official web portal to all federal, state and local government web resources and services.